Weather in Sytkovo

Russia / Tver Oblast     56°30′58″N   34°00′38″E
temp.,
°C
wind,
m/s
gust,
m/s
humid.,
%
clouds,
%
prec.,
mm/h
press.,
hPa
HPBL,
m
19 april, mon
mon1900:00+6ne412705 0.0 1024434
03:00+5ne4108413 0.0 1024342
06:00+3ne399438 0.0 1024269
09:00+7ene478191 0.0 1024534
12:00+7ene5875100 0.0 1025803
15:00+8ene4766100 0.0 10241147
18:00+9ene4762100 0.0 10231299
21:00+7ene4970100 0.0 1024604
20 april, tue
tue2000:00+6ene4969100 0.0 1023689
03:00+4ene486998 0.0 1023680
06:00+2ene4970100 0.0 1022596
09:00+2e5987100 0.3 1022631
12:00+6e5865100 0.0 10201060
15:00+8e5862100 0.0 10181317
18:00+5e5881100 0.1 1017860
21:00+3e3690100 0.4 1016883
21 april, wed
wed2100:00+2ene2697100 0.1 1013699
03:00+2ne3797100 0.3 1010431
06:00+1nne3998100 3.6 1006425
09:00+1n2699100 7.4 1004310
12:00+2wnw2399100 1.3 1003166
15:00+2w3799100 1.6 1004291
18:00+3wsw41197100 0.6 1005684
21:00+2s269899 0.6 1007128
22 april, thu
thu2200:00+2ssw31195100 0.1 1008274
03:00+2ssw3129495 0.1 1009356
06:00+3s31394100 0.3 1009463
09:00+6ssw598758 0.4 1010509
12:00+9ssw4678100 0.0 1011881
15:00+12ssw476444 1.1 10111377
18:00+11s37745 0.8 1012398
21:00+7sse37925 0.9 1013135
23 april, fri
fri2300:00+5sse310955 0.0 1013204
03:00+5sse249463 0.0 101367
06:00+5sse3119398 0.0 1013241
09:00+9s5128465 0.0 1012609
12:00+11ssw51182100 0.4 10121306
15:00+12s41079100 0.9 10101297
18:00+11ssw5118399 1.8 10081044
21:00+6wsw3796100 10.5 1009521